User: anonymous   Login
Location: Los Gatos B&B
(42.6926°N, 77.0646°W)
Time: 01:30:23
(UTC-05:00)
Language:

SL-16 R/B - Orbit

View from above orbital plane
View from above orbital plane
View from above satellite
View from above satellite

Ground track
Ground track

The orbit data is extracted from the following two-line orbital elements,

1 28353U 04021B   14351.61302569  .00000327  00000-0  19667-3 0  9077
2 28353 070.9991 192.1726 0004093 166.4817 219.0588 14.14101346543151
Epoch (UTC): 17 December 2014 14:42:45
Eccentricity: 0.0004093
inclination: 70.9991°
perigee height: 842 km
apogee height: 848 km
right ascension of ascending node: 192.1726°
argument of perigee: 166.4817°
revolutions per day: 14.14101346
mean anomaly at epoch: 219.0588°
orbit number at epoch: 54315

The dashed part of the orbit path shows where the satellite is in the earth's shadow,  

DLR